Regional Weather Roundup
Issued by NWS

Home | Current Version | Previous Version | Text Only | Print | Product List | Glossary On
Versions: 1 2 3 4 5 6 7 8 9 10 11 12 13 14 15 16 17 18 19 20 21 22 23 24 25 26 27 28 29 30 31 32 33 34 35 36 37 38 39 40 41 42 43 44 45 46 47 48 49 50
000
ASCA44 KEWX 302120
RWRMX

LATIN AMERICA AND CARIBBEAN REGIONAL WEATHER ROUNDUP
NATIONAL WEATHER SERVICE AUSTIN/SAN ANTONIO TX
400 PM CDT MON MAY 30 2016

NOTE: "FAIR" INDICATED FEW OR NO CLOUDS BELOW 12,000 FEET WITH NO
SIGNIFICANT WEATHER AND/OR OBSTRUCTIONS TO VISIBILITY.

BAJA CALIFORNIA

CITY           SKY/WX    TMP DP  RH WIND       PRES   REMARKS
LORETO         MOSUNNY   84  77  79 NE9       29.81F HX  94
LA PAZ         PTSUNNY   93  57  29 S5        29.85F HX  92
MEXICALI       SUNNY     93  39  15 SW7       29.82F
S.J. DEL CABO  PTSUNNY   88  66  48 SE14      29.86F HX  90
TIJUANA        PTSUNNY   68  54  60 W21       29.98F

NORTHWESTERN MEXICO

CITY           SKY/WX    TMP DP  RH WIND       PRES   REMARKS
CULIACAN       CLOUDY    90  75  62 S10       29.88F HX 100
DURANGO        PTSUNNY   88  27  11 E3        30.13F
GUAYMAS        SUNNY     88  61  40 CALM      29.79F
HERMOSILLO     MOSUNNY   97  54  23 SW12      29.85F HX  94
CD. JUAREZ     PTSUNNY   90  46  22 SE12      29.87F
LOS MOCHIS     PTSUNNY   88  64  45 W13       29.85F
OBREGON        PTSUNNY   95  57  28 S12       29.80F HX  94

NORTHEASTERN MEXICO

CITY           SKY/WX    TMP DP  RH WIND       PRES   REMARKS
CHIHUAHUA      PTSUNNY   81  45  28 S24G37    30.04R
MATAMOROS      CLOUDY    79  77  94 E8        29.94F
MONCLOVA         N/A    N/A N/A N/A MISG        N/A
MONTERREY      PTSUNNY   88  63  42 E8        29.92F
NUEVO LAREDO   PTSUNNY   88  66  48 SE14      29.96S HX  90
PIEDRAS NEGRAS   N/A    N/A N/A N/A MISG        N/A
REYNOSA        PTSUNNY   75  70  83 E9G21     29.90F
SALTILLO       MOSUNNY   82  70  65 N17       30.12F
TORREON        PTSUNNY   97  54  23 CALM      29.90F HX  94
CD. VICTORIA   MOSUNNY   90  68  48 S7        29.88F HX  93

WESTERN MEXICO

CITY           SKY/WX    TMP DP  RH WIND       PRES   REMARKS
AGUASCALIENTES PTSUNNY   88  28  11 NW7       30.15F
COLIMA         MOSUNNY   86  70  58 SW17      29.94F HX  90
DEL BAJIO      MOSUNNY   88  54  31 SE5       30.18F
GUADALAJARA    SUNNY     93  36  13 W13       30.07F
MANZANILLO     MOSUNNY   82  72  69 W17       29.79F
MAZATLAN       SUNNY     88  73  62 W6        29.84F HX  96
P. VALLARTA      N/A    N/A N/A N/A MISG        N/A
URUAPAN        PTSUNNY   77  63  61 S8        30.13F
ZACATECAS      MOSUNNY   90  32  12 SW17      30.19F

CENTRAL MEXICO

CITY           SKY/WX    TMP DP  RH WIND       PRES   REMARKS
CUERNAVACA     CLOUDY    86  54  32 CALM      30.03F
MEXICO CITY    MOSUNNY   79  41  25 NE14      30.24F
MORELIA        PTSUNNY   88  48  25 W9        30.14F
POZA RICA      MOSUNNY   97  75  49 NE12      29.91F HX 109
PUEBLA         PTSUNNY   77  46  33 E3        30.26F
QUERETARO      CLOUDY    77  54  44 NE12      30.21F THUNDER
S. LUIS POTOSI PTSUNNY   79  55  44 E9        30.15F THUNDER
TAMPICO        MOSUNNY   88  73  62 E12       29.89F HX  96
TOLUCA         PTSUNNY   77  50  38 E5        30.33F

SOUTHERN MEXICO

CITY           SKY/WX    TMP DP  RH WIND       PRES   REMARKS
ACAPULCO       SUNNY     90  75  62 SW9       29.81F HX 100
B. DE HUATULCO PTSUNNY   81  79  94 N16       29.91R
OAXACA         CLOUDY    86  52  30 S6        30.11F
P. ESCONDIDO   MOSUNNY   91  79  66 S12       29.93F HX 107
VERACRUZ       MOSUNNY   91  77  62 E17       29.85F HX 105
ZIHUATANEJO    SUNNY     90  77  66 SW12      29.84S HX 102

YUCATAN PENINSULA

CITY           SKY/WX    TMP DP  RH WIND       PRES   REMARKS
CAMPECHE       MOSUNNY   88  79  74 NW12G23   29.81F HX 102
CANCUN         PTSUNNY   88  75  66 E10       29.90F HX  97
CHETUMAL       MOSUNNY   90  75  62 SE14      29.85F HX 100
CD. DEL CARMEN MOSUNNY   90  77  66 NE15      29.82F HX 102
COZUMEL        PTSUNNY   82  73  74 E9        29.90F
MERIDA         PTSUNNY   97  72  44 N13       29.84F HX 105
MINATITLAN     MOSUNNY   88  77  70 N14       29.82F HX 100
TAPACHULA      MOSUNNY   90  79  70 W9        29.76F HX 105
TUX. GUTIERREZ PTSUNNY   93  64  38 N12       29.83F HX  95
VILLAHERMOSA   MOSUNNY   97  75  49 NE7       29.83F HX 109

CENTRAL AMERICA

CITY           SKY/WX    TMP DP  RH WIND       PRES   REMARKS
BELIZE CITY    MOSUNNY   91  79  66 E10       29.87F HX 107
MANAGUA        PTCLDY    93  72  49 SE5       29.74F HX 100

CARIBBEAN

CITY           SKY/WX    TMP DP  RH WIND       PRES   REMARKS
ARUBA          MOSUNNY   88  75  66 E22       29.77S HX  97
CURACAO        MOSUNNY   84  75  74 E15       29.83S HX  92
KINGSTON       MOSUNNY   88  75  66 SE20      29.83F HX  97
NASSAU         PTSUNNY   84  77  79 NE7       29.95F HX  94
SAN JUAN       PTSUNNY   81  79  94 E8        29.95S
SANTO DOMINGO  PTSUNNY   82  75  78 SE7       29.89S
ST. CROIX      PTSUNNY   84  73  70 E13       29.95  HX  91
ST. KITTS      MOSUNNY   82  75  78 E10       29.94S
ST. THOMAS     MOSUNNY   84  75  74 SE16      29.94S HX  92

$$





USA.gov is the U.S. government's official web portal to all federal, state and local government web resources and services.